Albuquerque, NM

7:31 AM MST on February 08, 2016 (GMT -0700)
Albuquerque International Sunport

Weather History for KABQ - September, 2011

Change the Weather History Date:

Thursday, September 1, 2011

  Actual Average Record
Temperature  
Mean Temperature 81 °F 74 °F  
Max Temperature 94 °F 85 °F 97 °F (1982)
Min Temperature 68 °F 63 °F 47 °F (1917)
Degree Days  
Heating Degree Days 0 0  
Month to date heating degree days 0 0  
Since 1 July heating degree days 0 0  
Cooling Degree Days 16 9  
Month to date cooling degree days 16 9  
Year to date cooling degree days 1543 1166  
Growing Degree Days 30 (Base 50)    
Moisture  
Dew Point 53 °F    
Average Humidity 41    
Maximum Humidity 63    
Minimum Humidity 18    
Precipitation  
Precipitation 0.08 in 0.04 in 0.92 in (1938)
Month to date precipitation 0.08 0.04  
Year to date precipitation 1.59 6.32  
Snow  
Snow 0.00 in - - ()
Month to date snowfall 0.0  
Since 1 July snowfall 0.0  
Since 1 September snowfall 0.0  
Snow Depth 0.00 in    
Sea Level Pressure  
Sea Level Pressure 29.92 in    
Wind  
Wind Speed 7 mph (NW)    
Max Wind Speed 25 mph    
Max Gust Speed 33 mph    
Visibility 10 miles    
Events Rain , Thunderstorm    
T = Trace of Precipitation, MM = Missing Value Source: NWS Daily Summary

Daily Weather History Graph

Daily Weather History Graph

Search for Another Location

Airport or City:

Trip Planner

Search our weather history database for the weather conditions in past years. The results will help you decide how hot, cold, wet, or windy it might be!

Date:

Astronomy

Sep. 01, 2011 Rise Set
Actual Time 6:38 AM MDT 7:33 PM MDT
Civil Twilight 6:13 AM MDT 7:59 PM MDT
Nautical Twilight 5:42 AM MDT 8:29 PM MDT
Astronomical Twilight 5:10 AM MDT 9:01 PM MDT
Moon 10:48 AM MDT (9/1) 9:41 PM MDT (9/1)
Length of Visible Light 13h 46m
Length of Day
12h 54m
Waxing Crescent, 18% of the Moon is Illuminated
Sep 1
Waxing Crescent
Sep 4
First Quarter
Sep 12
Full
Sep 20
Last Quarter
Sep 27
New

Hourly Weather History & Observations

Time (MDT) Temp. Dew Point Humidity Pressure Visibility Wind Dir Wind Speed Gust Speed Precip Events Conditions
12:56 AM 75.0 °F 48.9 °F 40% 29.87 in 10.0 mi WSW 5.8 mph - N/A   Mostly Cloudy
1:56 AM 73.0 °F 52.0 °F 48% 29.90 in 10.0 mi North 8.1 mph - N/A   Mostly Cloudy
2:56 AM 69.1 °F 55.0 °F 61% 29.91 in 10.0 mi SE 5.8 mph - N/A   Mostly Cloudy
3:56 AM 69.1 °F 55.9 °F 63% 29.91 in 10.0 mi SSE 9.2 mph - N/A   Mostly Cloudy
4:56 AM 68.0 °F 55.9 °F 65% 29.89 in 10.0 mi ESE 3.5 mph - N/A   Mostly Cloudy
5:56 AM 69.1 °F 54.0 °F 58% 29.91 in 10.0 mi West 4.6 mph - N/A   Mostly Cloudy
6:56 AM 69.1 °F 55.9 °F 63% 29.92 in 10.0 mi Calm Calm - N/A   Mostly Cloudy
7:56 AM 72.0 °F 55.0 °F 55% 29.94 in 10.0 mi NW 5.8 mph - N/A   Mostly Cloudy
8:56 AM 73.0 °F 54.0 °F 51% 29.94 in 10.0 mi North 8.1 mph - N/A   Scattered Clouds
9:56 AM 75.9 °F 51.1 °F 42% 29.93 in 10.0 mi North 6.9 mph - N/A   Scattered Clouds
10:56 AM 80.1 °F 50.0 °F 35% 29.93 in 10.0 mi NW 3.5 mph - N/A   Scattered Clouds
11:56 AM 82.9 °F 48.9 °F 31% 29.91 in 10.0 mi Variable 3.5 mph - N/A   Scattered Clouds
12:56 PM 84.9 °F 46.9 °F 27% 29.88 in 10.0 mi Variable 3.5 mph - N/A   Mostly Cloudy
1:56 PM 88.0 °F 44.1 °F 22% 29.84 in 10.0 mi SW 9.2 mph - N/A   Scattered Clouds
2:56 PM 91.9 °F 44.1 °F 19% 29.79 in 10.0 mi Variable 4.6 mph - N/A   Scattered Clouds
3:56 PM 91.0 °F 42.1 °F 18% 29.78 in 10.0 mi Variable 3.5 mph - N/A   Scattered Clouds
4:56 PM 90.0 °F 45.0 °F 21% 29.78 in 10.0 mi SE 19.6 mph - N/A   Mostly Cloudy
5:56 PM 84.9 °F 46.9 °F 27% 29.84 in 10.0 mi South 24.2 mph 29.9 mph N/A   Mostly Cloudy
6:06 PM 77.0 °F 57.2 °F 50% 30.12 in 7.0 mi SSW 18.4 mph 33.4 mph 0.00 in Rain , Thunderstorm Light Thunderstorms and Rain
6:22 PM 75.2 °F 57.2 °F 53% 30.15 in 5.0 mi West 20.7 mph 32.2 mph 0.00 in Rain , Thunderstorm Thunderstorms and Rain
6:56 PM 71.1 °F 60.1 °F 68% 29.96 in 6.0 mi NW 8.1 mph - 0.06 in Rain , Thunderstorm Light Thunderstorms and Rain
7:38 PM 71.6 °F 59.0 °F 64% 30.18 in 10.0 mi NNE 11.5 mph - 0.02 in Rain Light Rain
7:56 PM 71.1 °F 57.9 °F 63% 29.96 in 10.0 mi North 9.2 mph - 0.02 in Rain Light Rain
8:56 PM 71.1 °F 57.9 °F 63% 29.93 in 10.0 mi North 11.5 mph - 0.00 in   Mostly Cloudy
9:56 PM 73.0 °F 53.1 °F 49% 29.91 in 10.0 mi North 9.2 mph - N/A   Mostly Cloudy
10:56 PM 71.1 °F 55.9 °F 59% 29.91 in 10.0 mi North 6.9 mph - N/A   Mostly Cloudy
11:56 PM 71.1 °F 57.0 °F 61% 29.91 in 10.0 mi NE 3.5 mph - N/A   Mostly Cloudy